Simultaneous Nadir Overpasses (SNOs) Predictions

Prediction of SNOs between AQUA and METOP-A Satellite Orbit:

Table of predicted SNOs for the next 14.0 days since TLE Epoch: 12/30/2013
Index Date (AQUA) Time (AQUA) Lat,Lon (AQUA) SZA (AQUA ) Date (METOP-A) Time (METOP-A) Lat,Lon (METOP-A) SZA (METOP-A ) Distance(km) Time Diff (sec)
1 01/01/2014 21:17:30 73.89,-145.27 96.85 01/01/2014 21:16:54 73.88,-145.16 96.85 3.38 36
2 01/01/2014 22:06:56 -73.90, 22.33 83.14 01/01/2014 22:07:35 -73.91, 22.23 83.13 3.26 39
3 01/04/2014 16:51:42 73.86, -78.76 96.56 01/04/2014 16:51:15 73.89, -78.74 96.59 3.12 27
4 01/04/2014 17:41:09 -73.93, 88.74 83.38 01/04/2014 17:41:56 -73.92, 88.65 83.39 3.01 47
5 01/07/2014 11:36:16 -73.32,-178.78 84.34 01/07/2014 11:35:08 -73.28, 178.93 84.29 73.31 68
6 01/07/2014 12:25:54 73.88, -12.35 96.25 01/07/2014 12:25:36 73.88, -12.35 96.26 0.30 18
7 01/07/2014 13:15:21 -73.94, 155.16 83.69 01/07/2014 13:16:16 -73.95, 155.16 83.68 1.36 55
8 01/10/2014 07:10:33 -73.69,-113.11 84.33 01/10/2014 07:09:21 -73.61,-113.92 84.37 26.85 72
9 01/10/2014 08:00:04 73.89, 54.08 95.89 01/10/2014 07:59:55 73.91, 54.12 95.90 1.83 9
10 01/10/2014 08:49:31 -73.96,-138.41 84.06 01/10/2014 08:50:35 -73.98,-138.37 84.04 3.15 64
11 01/13/2014 02:44:45 -73.81, -46.89 84.65 01/13/2014 02:43:37 -73.82, -47.00 84.61 3.74 68
12 01/13/2014 03:34:14 73.91, 120.52 95.46 01/13/2014 03:34:15 73.92, 120.57 95.48 2.23 1




NCC Satellite Simultaneous Nadir Overpasses (SNOs) Prediction Service
